Time,TemperatureF,DewpointF,PressureIn,WindDirection,WindDirectionDegrees,WindSpeedMPH,WindSpeedGustMPH,Humidity,HourlyPrecipIn,Conditions,Clouds,dailyrainin,SoftwareType,DateUTC
2015-01-26 00:01:00,37.1,34.9,30.21,WSW,248,4.0,6.5,92,0.00,,,0.00,WUHU216HW,2015-01-25 23:01:00,
2015-01-26 00:06:00,37.3,34.8,30.21,West,270,2.7,6.5,91,0.00,,,0.00,WUHU216HW,2015-01-25 23:06:00,
2015-01-26 00:11:00,37.3,35.1,30.21,SW,225,5.4,5.4,92,0.00,,,0.00,WUHU216HW,2015-01-25 23:11:00,
2015-01-26 00:16:00,37.1,34.9,30.20,West,270,4.0,5.4,92,0.00,,,0.00,WUHU216HW,2015-01-25 23:16:00,
2015-01-26 00:21:00,37.3,35.1,30.20,SW,225,3.8,5.4,92,0.00,,,0.00,WUHU216HW,2015-01-25 23:21:00,
2015-01-26 00:26:00,37.3,35.1,30.20,SSW,203,2.9,6.7,92,0.00,,,0.00,WUHU216HW,2015-01-25 23:26:00,
2015-01-26 00:31:00,37.3,35.1,30.20,SSW,203,4.9,7.4,92,0.00,,,0.00,WUHU216HW,2015-01-25 23:31:00,
2015-01-26 00:37:00,37.1,34.9,30.20,SW,225,5.8,7.4,92,0.00,,,0.00,WUHU216HW,2015-01-25 23:37:00,
2015-01-26 00:42:00,37.1,34.9,30.20,SSW,203,4.7,5.8,92,0.00,,,0.00,WUHU216HW,2015-01-25 23:42:00,
2015-01-26 00:47:00,37.1,34.9,30.20,SSW,203,4.7,4.7,92,0.00,,,0.00,WUHU216HW,2015-01-25 23:47:00,
2015-01-26 00:52:00,37.1,34.9,30.20,SSW,203,3.6,4.9,92,0.00,,,0.00,WUHU216HW,2015-01-25 23:52:00,
2015-01-26 00:57:00,37.1,34.9,30.19,SW,225,4.3,4.9,92,0.00,,,0.00,WUHU216HW,2015-01-25 23:57:00,
2015-01-26 01:02:00,37.1,34.9,30.19,SW,225,3.1,5.8,92,0.00,,,0.00,WUHU216HW,2015-01-26 00:02:00,
2015-01-26 01:07:00,37.1,34.9,30.20,SW,225,4.0,5.8,92,0.00,,,0.00,WUHU216HW,2015-01-26 00:07:00,
2015-01-26 01:12:00,37.1,34.9,30.20,SW,225,5.1,5.1,92,0.00,,,0.00,WUHU216HW,2015-01-26 00:12:00,
2015-01-26 01:17:00,37.1,34.9,30.20,SSW,203,4.5,5.1,92,0.00,,,0.00,WUHU216HW,2015-01-26 00:17:00,
2015-01-26 01:22:00,37.1,34.9,30.19,SSW,203,4.7,5.1,92,0.00,,,0.00,WUHU216HW,2015-01-26 00:22:00,
2015-01-26 01:27:00,37.1,34.9,30.19,SSW,203,5.1,5.1,92,0.00,,,0.00,WUHU216HW,2015-01-26 00:27:00,
2015-01-26 01:32:00,37.1,34.9,30.19,South,180,3.4,6.7,92,0.00,,,0.00,WUHU216HW,2015-01-26 00:32:00,
2015-01-26 01:37:00,37.1,34.9,30.19,SSW,203,4.0,6.7,92,0.00,,,0.00,WUHU216HW,2015-01-26 00:37:00,
2015-01-26 01:42:00,37.1,34.9,30.18,SSW,203,4.0,5.6,92,0.00,,,0.00,WUHU216HW,2015-01-26 00:42:00,
2015-01-26 01:47:00,37.1,34.9,30.18,SW,225,3.8,6.3,92,0.00,,,0.00,WUHU216HW,2015-01-26 00:47:00,
2015-01-26 01:52:00,37.1,34.9,30.18,SSW,203,4.0,6.5,92,0.00,,,0.00,WUHU216HW,2015-01-26 00:52:00,
2015-01-26 01:57:00,36.9,34.7,30.18,West,270,7.2,7.2,92,0.00,,,0.00,WUHU216HW,2015-01-26 00:57:00,
2015-01-26 02:02:00,37.1,34.9,30.18,South,180,4.0,7.2,92,0.00,,,0.00,WUHU216HW,2015-01-26 01:02:00,
2015-01-26 02:07:00,37.1,34.9,30.17,SSW,203,5.6,7.6,92,0.00,,,0.00,WUHU216HW,2015-01-26 01:07:00,
2015-01-26 02:12:00,37.1,34.9,30.17,South,180,7.2,7.6,92,0.00,,,0.00,WUHU216HW,2015-01-26 01:12:00,
2015-01-26 02:17:00,36.9,34.7,30.17,SW,225,4.7,7.8,92,0.02,,,0.02,WUHU216HW,2015-01-26 01:17:00,
2015-01-26 02:22:00,37.1,34.9,30.17,SW,225,7.6,7.8,92,0.02,,,0.02,WUHU216HW,2015-01-26 01:22:00,
2015-01-26 02:27:00,37.1,34.9,30.17,SSW,203,4.7,9.2,92,0.02,,,0.02,WUHU216HW,2015-01-26 01:27:00,
2015-01-26 02:33:00,37.1,34.9,30.17,SW,225,3.8,9.2,92,0.02,,,0.02,WUHU216HW,2015-01-26 01:33:00,
2015-01-26 02:38:00,36.9,34.7,30.17,SSW,203,4.5,6.9,92,0.02,,,0.02,WUHU216HW,2015-01-26 01:38:00,
2015-01-26 02:43:00,36.9,34.7,30.17,SSW,203,4.7,6.5,92,0.02,,,0.02,WUHU216HW,2015-01-26 01:43:00,
2015-01-26 02:48:00,36.9,34.7,30.17,SW,225,6.5,6.9,92,0.02,,,0.02,WUHU216HW,2015-01-26 01:48:00,
2015-01-26 02:53:00,36.9,34.7,30.16,SW,225,6.7,7.4,92,0.02,,,0.02,WUHU216HW,2015-01-26 01:53:00,
2015-01-26 02:58:00,36.9,34.7,30.16,SSW,203,6.9,7.4,92,0.02,,,0.02,WUHU216HW,2015-01-26 01:58:00,
2015-01-26 03:03:00,36.9,34.7,30.16,SSW,203,5.1,7.4,92,0.02,,,0.02,WUHU216HW,2015-01-26 02:03:00,
2015-01-26 03:08:00,36.9,34.7,30.16,WSW,248,5.4,7.4,92,0.02,,,0.02,WUHU216HW,2015-01-26 02:08:00,
2015-01-26 03:13:00,36.9,34.7,30.16,SSW,203,7.8,7.8,92,0.00,,,0.02,WUHU216HW,2015-01-26 02:13:00,
2015-01-26 03:18:00,36.9,34.7,30.15,SW,225,6.3,7.8,92,0.00,,,0.02,WUHU216HW,2015-01-26 02:18:00,
2015-01-26 03:23:00,36.9,34.7,30.15,SSW,203,5.4,7.2,92,0.00,,,0.02,WUHU216HW,2015-01-26 02:23:00,
2015-01-26 03:28:00,36.9,34.7,30.15,SW,225,5.6,6.7,92,0.00,,,0.02,WUHU216HW,2015-01-26 02:28:00,
2015-01-26 03:33:00,36.9,34.7,30.15,SSW,203,4.0,6.3,92,0.00,,,0.02,WUHU216HW,2015-01-26 02:33:00,
2015-01-26 03:38:00,36.9,34.7,30.14,SW,225,3.4,7.6,92,0.00,,,0.02,WUHU216HW,2015-01-26 02:38:00,
2015-01-26 03:44:00,36.9,34.7,30.14,SSW,203,6.7,7.6,92,0.00,,,0.02,WUHU216HW,2015-01-26 02:44:00,
2015-01-26 03:49:00,36.9,34.7,30.14,SSW,203,6.3,7.4,92,0.00,,,0.02,WUHU216HW,2015-01-26 02:49:00,
2015-01-26 03:54:00,36.9,34.7,30.14,SSW,203,6.0,8.1,92,0.00,,,0.02,WUHU216HW,2015-01-26 02:54:00,
2015-01-26 03:59:00,36.9,34.7,30.13,SSW,203,4.7,8.1,92,0.00,,,0.02,WUHU216HW,2015-01-26 02:59:00,
2015-01-26 04:04:00,36.9,34.7,30.13,SSW,203,6.3,6.9,92,0.00,,,0.02,WUHU216HW,2015-01-26 03:04:00,
2015-01-26 04:09:00,36.9,34.7,30.13,WSW,248,4.0,7.6,92,0.00,,,0.02,WUHU216HW,2015-01-26 03:09:00,
2015-01-26 04:14:00,36.9,34.7,30.12,WSW,248,2.7,7.6,92,0.00,,,0.02,WUHU216HW,2015-01-26 03:14:00,
2015-01-26 04:19:00,36.9,34.7,30.12,SSW,203,6.9,6.9,92,0.00,,,0.02,WUHU216HW,2015-01-26 03:19:00,
2015-01-26 04:24:00,37.1,34.9,30.12,SSW,203,7.2,8.5,92,0.00,,,0.02,WUHU216HW,2015-01-26 03:24:00,
2015-01-26 04:29:00,37.1,34.9,30.12,SSW,203,6.5,8.5,92,0.00,,,0.02,WUHU216HW,2015-01-26 03:29:00,
2015-01-26 04:34:00,37.1,34.9,30.12,SSW,203,4.3,7.8,92,0.00,,,0.02,WUHU216HW,2015-01-26 03:34:00,
2015-01-26 04:39:00,37.1,34.9,30.12,SSW,203,7.4,10.1,92,0.00,,,0.02,WUHU216HW,2015-01-26 03:39:00,
2015-01-26 04:45:00,37.1,34.9,30.11,SSW,203,4.7,10.1,92,0.00,,,0.02,WUHU216HW,2015-01-26 03:45:00,
2015-01-26 04:50:00,37.1,34.9,30.11,SW,225,3.6,6.5,92,0.00,,,0.02,WUHU216HW,2015-01-26 03:50:00,
2015-01-26 04:55:00,37.1,34.9,30.11,SSW,203,4.0,6.9,92,0.00,,,0.02,WUHU216HW,2015-01-26 03:55:00,
2015-01-26 05:00:00,37.1,34.9,30.11,SW,225,6.3,8.1,92,0.00,,,0.02,WUHU216HW,2015-01-26 04:00:00,
2015-01-26 05:05:00,37.1,34.9,30.10,SW,225,3.6,8.1,92,0.00,,,0.02,WUHU216HW,2015-01-26 04:05:00,
2015-01-26 05:10:00,37.1,34.9,30.10,SW,225,4.0,6.3,92,0.00,,,0.02,WUHU216HW,2015-01-26 04:10:00,
2015-01-26 05:15:00,37.1,34.9,30.10,South,180,5.1,7.8,92,0.00,,,0.02,WUHU216HW,2015-01-26 04:15:00,
2015-01-26 05:20:00,37.1,34.9,30.09,SW,225,2.5,7.8,92,0.00,,,0.02,WUHU216HW,2015-01-26 04:20:00,
2015-01-26 05:25:00,37.1,34.9,30.09,SW,225,4.0,8.1,92,0.00,,,0.02,WUHU216HW,2015-01-26 04:25:00,
2015-01-26 05:30:00,37.1,34.9,30.09,SSW,203,2.9,8.5,92,0.00,,,0.02,WUHU216HW,2015-01-26 04:30:00,
2015-01-26 05:35:00,37.1,34.9,30.09,SSW,203,5.8,8.5,92,0.00,,,0.02,WUHU216HW,2015-01-26 04:35:00,
2015-01-26 05:40:00,37.1,34.9,30.09,SW,225,5.6,7.4,92,0.02,,,0.04,WUHU216HW,2015-01-26 04:40:00,
2015-01-26 05:45:00,37.1,34.9,30.09,SW,225,6.5,7.4,92,0.02,,,0.04,WUHU216HW,2015-01-26 04:45:00,
2015-01-26 05:50:00,37.1,34.9,30.09,SSW,203,7.4,8.5,92,0.02,,,0.04,WUHU216HW,2015-01-26 04:50:00,
2015-01-26 05:55:00,37.1,34.9,30.08,SW,225,6.5,8.5,92,0.02,,,0.04,WUHU216HW,2015-01-26 04:55:00,
2015-01-26 06:00:00,37.1,34.9,30.08,SSW,203,4.5,7.4,92,0.02,,,0.04,WUHU216HW,2015-01-26 05:00:00,
2015-01-26 06:05:00,37.1,34.9,30.08,SW,225,4.9,7.2,92,0.02,,,0.04,WUHU216HW,2015-01-26 05:05:00,
2015-01-26 06:10:00,37.1,34.9,30.08,SSW,203,6.9,7.6,92,0.02,,,0.04,WUHU216HW,2015-01-26 05:10:00,
2015-01-26 06:15:00,37.1,34.9,30.07,South,180,6.9,9.2,92,0.02,,,0.04,WUHU216HW,2015-01-26 05:15:00,
2015-01-26 06:21:00,37.1,34.9,30.07,SSW,203,3.8,9.2,92,0.02,,,0.04,WUHU216HW,2015-01-26 05:21:00,
2015-01-26 06:26:00,37.1,34.9,30.07,SSW,203,7.6,7.6,92,0.04,,,0.06,WUHU216HW,2015-01-26 05:26:00,
2015-01-26 06:31:00,37.1,34.9,30.07,SSW,203,5.6,7.6,92,0.04,,,0.06,WUHU216HW,2015-01-26 05:31:00,
2015-01-26 06:36:00,37.1,34.9,30.07,SW,225,4.7,7.6,92,0.02,,,0.06,WUHU216HW,2015-01-26 05:36:00,
2015-01-26 06:41:00,37.1,34.9,30.07,SW,225,3.4,7.8,92,0.02,,,0.06,WUHU216HW,2015-01-26 05:41:00,
2015-01-26 06:46:00,37.1,34.9,30.07,SSW,203,7.6,7.8,92,0.02,,,0.06,WUHU216HW,2015-01-26 05:46:00,
2015-01-26 06:51:00,37.1,34.9,30.07,South,180,7.2,7.6,92,0.02,,,0.06,WUHU216HW,2015-01-26 05:51:00,
2015-01-26 06:56:00,37.1,34.9,30.07,South,180,5.4,7.6,92,0.02,,,0.06,WUHU216HW,2015-01-26 05:56:00,
2015-01-26 07:01:00,37.3,35.1,30.07,SW,225,3.6,7.6,92,0.02,,,0.06,WUHU216HW,2015-01-26 06:01:00,
2015-01-26 07:06:00,37.1,34.9,30.07,SW,225,7.2,7.6,92,0.02,,,0.06,WUHU216HW,2015-01-26 06:06:00,
2015-01-26 07:11:00,37.3,35.1,30.07,SSW,203,6.0,7.6,92,0.02,,,0.06,WUHU216HW,2015-01-26 06:11:00,
2015-01-26 07:17:00,37.3,35.1,30.06,SW,225,4.0,7.6,92,0.02,,,0.06,WUHU216HW,2015-01-26 06:17:00,
2015-01-26 07:22:00,37.3,35.1,30.06,South,180,3.6,8.3,92,0.00,,,0.06,WUHU216HW,2015-01-26 06:22:00,
2015-01-26 07:27:00,37.3,35.1,30.06,SW,225,3.8,8.3,92,0.00,,,0.06,WUHU216HW,2015-01-26 06:27:00,
2015-01-26 07:32:00,37.3,35.1,30.06,SSW,203,3.6,6.9,92,0.00,,,0.06,WUHU216HW,2015-01-26 06:32:00,
2015-01-26 07:37:00,37.3,35.1,30.06,SSW,203,6.9,8.5,92,0.00,,,0.06,WUHU216HW,2015-01-26 06:37:00,
2015-01-26 07:42:00,37.3,35.1,30.06,WSW,248,4.0,8.5,92,0.00,,,0.06,WUHU216HW,2015-01-26 06:42:00,
2015-01-26 07:47:00,37.4,35.3,30.05,SSW,203,8.1,8.1,92,0.00,,,0.06,WUHU216HW,2015-01-26 06:47:00,
2015-01-26 07:52:00,37.4,35.3,30.05,WSW,248,7.8,8.1,92,0.00,,,0.06,WUHU216HW,2015-01-26 06:52:00,
2015-01-26 07:57:00,37.4,35.3,30.06,SW,225,4.0,7.8,92,0.00,,,0.06,WUHU216HW,2015-01-26 06:57:00,
2015-01-26 08:02:00,37.4,35.3,30.05,SSW,203,4.3,5.8,92,0.00,,,0.06,WUHU216HW,2015-01-26 07:02:00,
2015-01-26 08:07:00,37.4,35.3,30.05,SW,225,5.6,7.2,92,0.00,,,0.06,WUHU216HW,2015-01-26 07:07:00,
2015-01-26 08:12:00,37.4,35.3,30.05,SSW,203,6.3,7.8,92,0.00,,,0.06,WUHU216HW,2015-01-26 07:12:00,
2015-01-26 08:17:00,37.4,35.3,30.05,SSW,203,3.4,7.8,92,0.00,,,0.06,WUHU216HW,2015-01-26 07:17:00,